Zurück zum Katalog

STARLINK-11150

AktivKommunikationVLEO
NORAD 60406·PAYLOAD·🇺🇸 United States

Gestartet Aug 10, 2024 von Cape Canaveral Space Force Station

Loading…

Nächste Überflüge (nächste 24 Stunden)

TLE

AktuellSource: CelesTrak SupGP

Epoche: Sep 14, 2026, 13:46 UTC

1 60406C 24141J   26257.57409722 -.00031024  00000+0 -25552-3 0  2576
2 60406  53.1573 235.3108 0001339  82.1339  33.2093 15.69727195    19

Verfolge STARLINK-11150 in Echtzeit mit AllMySat

Download on the App Store